[[{"header":{"parameterUnit":"m.s-1","parameterCategory":1,"la1":30.2991,"la2":30.254,"lo1":-89.0895,"lo2":-89.0444,"dy":0.0017,"dx":0.0017,"nx":28,"ny":28,"refTime":"2025-08-16T03:00:00:Z","depth":0,"parameterNumber":2,"parameterNumberName":"U-component_of_WINDS"},"data":[0,0,0,0,0,0,0,0,0,0,0,0,0,0,0,0,0,0,0,0,0,0,0,0,0,0,0,0,0,0,0,0,0,0,0,0,0,0,0,0,0,0,0,0,0,0,0,0,0,0,0,0,0,0,0,0,0,0,4.1594,4.1594,0,4.1619,4.1619,4.1619,4.1524,4.1521,4.1518,4.1515,4.1543,4.1546,4.155,0,0,0,0,0,0,0,0,0,0,0,0,0,4.1467,4.147,4.1594,4.1594,4.1595,4.1618,4.1619,4.1619,4.1524,4.1521,4.1517,4.1514,4.1542,4.1546,4.155,0,0,0,0,0,0,0,0,0,0,0,0,0,4.151,4.1471,4.1594,4.155,4.1546,4.1618,4.1619,4.1619,4.1525,4.1521,4.1516,4.1513,4.1541,4.1545,4.155,4.1667,0,0,4.1566,4.1568,0,0,0,0,0,0,0,0,4.1508,4.1515,4.1556,4.1553,4.1549,4.1564,4.1584,4.1635,4.1526,4.1533,4.1515,4.151,4.1553,4.1557,4.1571,4.1668,4.1669,4.1566,4.1569,4.1572,4.1573,0,0,0,0,0,0,0,4.1505,4.1513,4.1604,4.1557,4.1553,4.153,4.1531,4.1593,4.1567,4.1532,4.1525,4.1529,4.1551,4.1567,4.1571,4.1669,4.1566,4.1571,4.1574,4.1576,4.1861,4.1865,0,0,0,0,0,0,4.1507,4.1511,4.1603,4.1604,4.1517,4.1536,4.1537,4.1563,4.1566,4.1562,4.1533,4.1525,4.156,4.1565,4.1572,4.1706,4.1572,4.1576,4.1579,4.1856,4.1862,4.1867,0,0,0,0,0,0,4.1505,4.1516,4.1602,4.1556,4.1565,4.1542,4.1573,4.1566,4.1582,4.1567,4.1562,4.1554,4.1557,4.1565,4.1643,4.1706,4.1579,4.1583,4.1851,4.1858,4.1864,4.1977,0,0,0,0,0,0,4.1502,4.1516,4.156,4.1558,4.1568,4.1673,4.1576,4.157,4.159,4.158,4.1585,4.1581,4.1554,4.1636,4.1648,4.171,4.1587,4.1845,4.1854,4.1862,4.1968,4.1987,4.2004,0,0,0,0,0,4.1497,4.1591,4.1562,4.1574,4.1622,4.1677,4.1683,4.1648,4.1596,4.1639,4.163,4.1581,4.1697,4.1645,4.1658,4.1723,4.1841,4.1852,4.1862,4.196,4.1983,4.2003,0,0,0,0,0,0,4.1602,4.159,4.1558,4.1654,4.1667,4.166,4.1714,4.1675,4.1704,4.1693,4.165,4.1652,4.1738,4.1738,4.168,4.1834,4.176,4.1774,4.183,4.1853,4.187,4.1868,4.1591,0,0,0,0,0,4.1637,4.1681,4.1669,4.1755,4.1763,4.1738,4.1761,4.1733,4.1745,4.175,4.1746,4.176,4.1799,4.1826,4.1862,4.1968,4.1967,4.2019,4.2037,4.2051,4.2063,4.2117,4.214,4.19,4.19,4.19,0,0,4.1708,4.1707,4.1738,4.1776,4.1782,4.183,4.1743,4.1798,4.1832,4.1759,4.1832,4.183,4.1842,4.1935,4.1975,4.1938,4.2129,4.2064,4.2076,4.208,4.213,4.2153,4.2173,4.1907,4.1906,4.1905,0,0,4.1861,4.1866,4.1937,4.1945,4.1956,4.1939,4.1956,4.1956,4.1951,4.2023,4.1969,4.201,4.2079,4.209,4.2105,4.2262,4.2218,4.2275,4.2368,4.2421,4.244,4.2456,4.2511,4.2531,4.2287,4.2287,4.2287,0,4.1949,4.2017,4.1979,4.2036,4.2054,4.1989,4.206,4.2071,4.2094,4.2107,4.2065,4.2149,4.2154,4.2247,4.2285,4.23,4.2317,4.2273,4.244,4.2457,4.2471,4.2523,4.2543,4.2294,4.2293,4.2292,4.2292,0,4.2123,4.2172,4.2228,4.225,4.2275,4.2339,4.231,4.234,4.2311,4.2298,4.2372,4.2375,4.2409,4.243,4.2402,4.2519,4.2495,4.2448,4.2372,4.2501,4.2549,4.2568,4.2303,4.2301,4.2299,4.2297,0,0,4.2343,4.2342,4.2363,4.2372,4.2379,4.2416,4.2478,4.251,4.2535,4.2554,4.2603,4.2663,4.2619,4.2635,4.2609,4.2656,4.2778,4.2602,4.2602,4.2633,4.2905,4.2939,4.2962,4.275,4.2753,4.2756,4.2903,0,4.2492,4.2596,4.2563,4.2668,4.2712,4.265,4.2704,4.2714,4.2704,4.274,4.2729,4.2771,4.271,4.272,4.2764,4.2754,4.2832,4.2743,4.2795,4.2797,4.2791,4.2987,4.3024,4.3162,4.2921,4.2924,4.2927,0,4.268,4.2704,4.2813,4.2811,4.2828,4.2877,4.2903,4.2939,4.2949,4.2938,4.2957,4.292,4.298,4.2905,4.2987,4.2927,4.2947,4.2945,4.295,4.2952,4.2868,4.2993,4.3205,4.3225,4.2956,4.2954,4.2951,0,4.2827,4.2887,4.2959,4.2969,4.2969,4.3004,4.3006,4.3012,4.3033,4.3057,4.307,4.3101,4.3118,4.3142,4.3114,4.3063,4.32,4.3123,4.3192,4.3192,4.3222,4.322,4.3438,4.3238,4.3238,4.3237,4.3237,0,4.2996,4.3065,4.3025,4.3069,4.3144,4.3106,4.3181,4.3176,4.3182,4.3224,4.3175,4.3215,4.3177,4.3215,4.3194,4.3263,4.3272,4.3264,4.3257,4.3268,4.3268,4.3278,4.3267,4.3243,4.3242,4.3241,4.324,0,4.3172,4.3148,4.3223,4.3217,4.3217,4.3272,4.3267,4.3308,4.3294,4.3348,4.3359,4.3337,4.3379,4.3354,4.3397,4.3382,4.3472,4.3454,4.3468,4.3463,4.3531,4.3524,4.3762,4.379,4.3574,4.3576,4.3578,0,4.328,4.3331,4.3331,4.3355,4.336,4.34,4.342,4.3385,4.3409,4.3424,4.3463,4.35,4.3527,4.3596,4.3585,4.3617,4.3597,4.3678,4.3601,4.3609,4.3595,4.3592,4.3596,4.3693,4.3695,4.3698,4.3699,0,4.3475,4.346,4.3491,4.3519,4.3545,4.3565,4.3581,4.3604,4.3569,4.3598,4.3639,4.366,4.3703,4.374,4.3767,4.3769,4.3728,4.3724,4.3741,4.375,4.3756,4.3751,4.3508,4.3718,4.3716,4.3715,4.3714,4.3713,4.3619,4.366,4.3666,4.3702,4.371,4.3726,4.3764,4.3754,4.3787,4.3818,4.3796,4.3844,4.3852,4.3884,4.3892,4.3929,4.3896,4.3921,4.3927,4.3933,4.3942,4.3752,4.3934,4.3933,4.3933,4.3932,4.3932,0,4.3808,4.3808,4.3842,4.3866,4.3894,4.3853,4.3869,4.3895,4.3938,4.3949,4.3977,4.4023,4.4058,4.405,4.4081,4.4113,4.4094,4.4122,4.4118,4.4119,4.397,4.3951,4.4136,4.4136,4.4136,4.4136,4.4136,4.4135,4.391,4.3978,4.3964,4.4035,4.4035,4.4081,4.4093,4.4107,4.4115,4.4169,4.4198,4.4192,4.4194,4.4225,4.4256,4.4252,4.4265,4.4299,4.4288,4.415,4.4129,4.411,4.4092,4.4303,4.4303,4.4433,4.4434,4.4435]},{"header":{"parameterUnit":"m.s-1","parameterCategory":1,"la1":30.2991,"la2":30.254,"lo1":-89.0895,"lo2":-89.0444,"dy":0.0017,"dx":0.0017,"nx":28,"ny":28,"refTime":"2025-08-16T03:00:00:Z","depth":0,"parameterNumber":3,"parameterNumberName":"V-component_of_WINDS"},"data":[0,0,0,0,0,0,0,0,0,0,0,0,0,0,0,0,0,0,0,0,0,0,0,0,0,0,0,0,0,0,0,0,0,0,0,0,0,0,0,0,0,0,0,0,0,0,0,0,0,0,0,0,0,0,0,0,0,0,4.3536,4.3536,0,4.3567,4.3568,4.3568,4.3565,4.3564,4.3564,4.3563,4.3592,4.3593,4.3594,0,0,0,0,0,0,0,0,0,0,0,0,0,4.3466,4.3468,4.3536,4.3536,4.3537,4.3567,4.3568,4.3568,4.3565,4.3564,4.3563,4.3563,4.3591,4.3593,4.3594,0,0,0,0,0,0,0,0,0,0,0,0,0,4.3497,4.3468,4.3536,4.3539,4.3539,4.3567,4.3568,4.3568,4.3565,4.3564,4.3563,4.3563,4.3591,4.3593,4.3594,4.3621,0,0,4.36,4.3601,0,0,0,0,0,0,0,0,4.3495,4.3499,4.3538,4.3538,4.3539,4.3561,4.3554,4.3586,4.3565,4.3555,4.3563,4.3562,4.3582,4.3584,4.3592,4.3622,4.3623,4.36,4.3601,4.3602,4.3603,0,0,0,0,0,0,0,4.3493,4.3498,4.3548,4.3538,4.3539,4.3536,4.354,4.356,4.3572,4.3556,4.3556,4.356,4.3582,4.359,4.3593,4.3623,4.36,4.3602,4.3603,4.3604,4.3672,4.3673,0,0,0,0,0,0,4.3491,4.3496,4.3547,4.3549,4.3515,4.3538,4.3542,4.3555,4.3572,4.3574,4.356,4.3559,4.3587,4.359,4.3594,4.3623,4.3602,4.3604,4.3605,4.3672,4.3672,4.3673,0,0,0,0,0,0,4.3489,4.3496,4.3546,4.3523,4.3529,4.354,4.3555,4.3556,4.3564,4.3575,4.3577,4.3566,4.3587,4.3591,4.3613,4.3624,4.3605,4.3606,4.3671,4.3672,4.3673,4.3683,0,0,0,0,0,0,4.3488,4.3495,4.3507,4.3523,4.353,4.3567,4.3555,4.3557,4.3568,4.3567,4.3582,4.3583,4.3587,4.361,4.3615,4.3626,4.3608,4.367,4.3671,4.3673,4.3682,4.3684,4.3686,0,0,0,0,0,4.3485,4.3508,4.3507,4.3514,4.3545,4.3568,4.3571,4.3576,4.3569,4.3579,4.3586,4.3583,4.3622,4.3613,4.3618,4.3629,4.3669,4.3671,4.3672,4.368,4.3684,4.3686,0,0,0,0,0,0,4.3493,4.3511,4.351,4.354,4.3552,4.3567,4.3581,4.358,4.3594,4.3592,4.3596,4.3599,4.3621,4.3628,4.3617,4.3654,4.3644,4.3647,4.3649,4.3652,4.3654,4.3651,4.3609,0,0,0,0,0,4.3498,4.3516,4.353,4.3555,4.3561,4.357,4.358,4.3582,4.3594,4.36,4.3608,4.3619,4.3634,4.3643,4.3657,4.3683,4.3684,4.3693,4.3695,4.3697,4.3699,4.3709,4.3713,4.3679,4.3679,4.3679,0,0,4.3509,4.3521,4.3532,4.3556,4.3566,4.3583,4.3574,4.3593,4.3604,4.3602,4.3623,4.363,4.3642,4.3665,4.3676,4.3671,4.3708,4.3699,4.37,4.3701,4.3711,4.3715,4.3717,4.368,4.368,4.3679,0,0,4.3536,4.3548,4.3569,4.3578,4.3594,4.3599,4.3603,4.3618,4.3622,4.3644,4.3641,4.3654,4.368,4.3688,4.3696,4.3723,4.372,4.3727,4.3739,4.3749,4.3752,4.3754,4.3762,4.3765,4.3729,4.3729,4.3729,0,4.3547,4.3574,4.3579,4.3597,4.3606,4.3605,4.3624,4.3633,4.3651,4.3657,4.3652,4.3682,4.3691,4.3714,4.3721,4.3728,4.3731,4.3725,4.3752,4.3754,4.3756,4.3763,4.3766,4.373,4.373,4.373,4.373,0,4.3585,4.3603,4.3617,4.3635,4.3646,4.3665,4.367,4.368,4.3681,4.3686,4.3706,4.3716,4.373,4.3736,4.3737,4.3759,4.3755,4.3751,4.3741,4.376,4.3767,4.3769,4.3731,4.3731,4.373,4.373,0,0,4.3619,4.3638,4.3643,4.365,4.3665,4.3678,4.3695,4.371,4.3717,4.373,4.3742,4.3763,4.3758,4.3766,4.3768,4.3777,4.3795,4.3771,4.3771,4.3773,4.3816,4.3818,4.3822,4.3793,4.3794,4.3794,4.3814,0,4.3646,4.3678,4.3681,4.3708,4.3723,4.372,4.3735,4.3744,4.3749,4.376,4.3765,4.3778,4.3772,4.3777,4.3786,4.3791,4.3803,4.3789,4.3802,4.3803,4.3798,4.3826,4.3828,4.3847,4.3817,4.3818,4.3818,0,4.3683,4.3696,4.3724,4.3734,4.3741,4.3754,4.3766,4.3778,4.3788,4.379,4.3798,4.3798,4.3813,4.3803,4.3822,4.3813,4.3818,4.3821,4.3821,4.3822,4.3811,4.3825,4.3854,4.3856,4.3823,4.3822,4.3822,0,4.3702,4.3726,4.3745,4.3752,4.3765,4.3774,4.3779,4.3789,4.3796,4.3807,4.3811,4.3823,4.3829,4.3837,4.3839,4.3832,4.3857,4.3848,4.3858,4.3857,4.3862,4.3862,4.3891,4.3868,4.3868,4.3868,4.3868,0,4.3731,4.3748,4.3754,4.3765,4.3783,4.3786,4.3803,4.3808,4.3816,4.3826,4.3825,4.3835,4.3838,4.3848,4.3849,4.3863,4.3866,4.3867,4.3867,4.3866,4.3866,4.3869,4.3867,4.3869,4.3869,4.3869,4.3869,0,4.3755,4.376,4.378,4.3791,4.3794,4.3806,4.3814,4.3824,4.3828,4.3841,4.3845,4.385,4.3861,4.3864,4.3878,4.3878,4.3894,4.3894,4.3891,4.3891,4.3899,4.3897,4.393,4.3934,4.391,4.391,4.3911,0,4.3773,4.3785,4.3796,4.3804,4.381,4.3822,4.383,4.3832,4.384,4.3851,4.3859,4.387,4.3879,4.3897,4.3901,4.391,4.3909,4.392,4.3911,4.3909,4.3907,4.3906,4.3906,4.3921,4.3921,4.3922,4.3922,0,4.3802,4.3803,4.3815,4.3827,4.3836,4.3845,4.3854,4.3859,4.3863,4.3871,4.3883,4.389,4.3903,4.3913,4.3923,4.3927,4.3924,4.3925,4.3927,4.3926,4.3923,4.3923,4.3894,4.3924,4.3924,4.3923,4.3923,4.3923,4.3822,4.3832,4.3841,4.3853,4.3859,4.3867,4.3876,4.388,4.3891,4.3902,4.3902,4.3914,4.3921,4.3933,4.3938,4.3946,4.3943,4.3947,4.3947,4.3948,4.3948,4.3923,4.3948,4.3948,4.3948,4.3948,4.3948,0,4.385,4.3855,4.3866,4.3878,4.3886,4.3884,4.3893,4.39,4.391,4.3917,4.3926,4.3938,4.3947,4.3952,4.3961,4.3966,4.3965,4.3968,4.3967,4.3968,4.3951,4.3948,4.3969,4.3969,4.3969,4.3969,4.3969,4.3969,4.3865,4.3881,4.3883,4.3901,4.3906,4.3918,4.3922,4.3929,4.3934,4.3947,4.3955,4.3958,4.3963,4.3972,4.398,4.3981,4.3984,4.3987,4.3987,4.3971,4.3969,4.3967,4.3964,4.3988,4.3988,4.4003,4.4003,4.4003]}]]